• In Spain
  • List of Countries
  • For 7 days
  • Water Temperature
  • Satellite Maps
  • Weather Map
  • Weather Widgets
  • user-avatar
    Login

    Hourly Weather Voskresency

    Today, 22 October, Monday

    Time Temperature Precipitation Wind Pressure Humidity
    00:00 -2°C° 0 mm 1 mps 753 mmHg 82%
    01:00 -2°C° 0 mm 1 mps 753 mmHg 82%
    02:00 -2°C° 0 mm 1 mps 753 mmHg 82%
    03:00 -2°C° 0 mm 1 mps 753 mmHg 82%
    04:00 -1°C° 0 mm 1 mps 752 mmHg 84%
    05:00 -3°C° 0 mm 2 mps 752 mmHg 85%
    06:00 -2°C° 0 mm 2 mps 752 mmHg 87%
    07:00 -2°C° 0 mm 2 mps 751 mmHg 88%
    08:00 -1°C° 0 mm 3 mps 751 mmHg 87%
    09:00 -1°C° 0 mm 3 mps 750 mmHg 85%
    10:00 -1°C° 0 mm 4 mps 750 mmHg 83%
    11:00 -1°C° 0 mm 4 mps 749 mmHg 80%
    12:00 0°C° 0 mm 4 mps 749 mmHg 77%
    13:00 0°C° 0 mm 5 mps 748 mmHg 74%
    14:00 0°C° 0.1 mm 5 mps 747 mmHg 74%
    15:00 0°C° 0.1 mm 5 mps 746 mmHg 73%
    16:00 0°C° 0.1 mm 5 mps 746 mmHg 73%
    17:00 0°C° 0.2 mm 5 mps 745 mmHg 74%
    18:00 0°C° 0.2 mm 5 mps 744 mmHg 74%
    19:00 0°C° 0.2 mm 5 mps 743 mmHg 75%
    20:00 0°C° 0.3 mm 5 mps 743 mmHg 76%
    21:00 0°C° 0.3 mm 5 mps 742 mmHg 78%
    22:00 0°C° 0.3 mm 5 mps 741 mmHg 80%
    23:00 0°C° 0.6 mm 5 mps 741 mmHg 81%

    Tomorrow, 23 October, Tuesday

    Time Temperature Precipitation Wind Pressure Humidity
    00:00 0°C° 0.6 mm 5 mps 740 mmHg 83%
    01:00 +1°C° 0.6 mm 5 mps 740 mmHg 84%
    02:00 +1°C° 0.5 mm 5 mps 739 mmHg 85%
    03:00 +1°C° 0.5 mm 5 mps 739 mmHg 86%
    04:00 +1°C° 0.5 mm 5 mps 739 mmHg 87%
    05:00 0°C° 0.5 mm 4 mps 739 mmHg 87%
    06:00 0°C° 0.5 mm 4 mps 739 mmHg 88%
    07:00 0°C° 0.5 mm 4 mps 739 mmHg 89%
    08:00 0°C° 0.4 mm 4 mps 739 mmHg 89%
    09:00 0°C° 0.4 mm 4 mps 739 mmHg 89%
    10:00 +1°C° 0.4 mm 4 mps 739 mmHg 89%
    11:00 +1°C° 0.1 mm 4 mps 739 mmHg 87%
    12:00 +1°C° 0.1 mm 4 mps 738 mmHg 86%
    13:00 +1°C° 0.1 mm 5 mps 738 mmHg 84%
    14:00 +1°C° 0 mm 4 mps 738 mmHg 84%
    15:00 +1°C° 0 mm 4 mps 738 mmHg 84%
    16:00 +1°C° 0 mm 4 mps 738 mmHg 83%
    17:00 +3°C° 0 mm 4 mps 737 mmHg 86%
    18:00 +3°C° 0 mm 4 mps 737 mmHg 88%
    19:00 +4°C° 0 mm 4 mps 736 mmHg 90%
    20:00 +4°C° 0.4 mm 4 mps 736 mmHg 91%
    21:00 +4°C° 0.4 mm 4 mps 736 mmHg 92%
    22:00 +4°C° 0.4 mm 4 mps 735 mmHg 94%
    23:00 +4°C° 0.5 mm 4 mps 735 mmHg 93%

    Day after tomorrow, 24 October, Wednesday

    Time Temperature Precipitation Wind Pressure Humidity
    00:00 +4°C° 0.5 mm 4 mps 735 mmHg 93%
    01:00 +4°C° 0.5 mm 3 mps 735 mmHg 93%
    02:00 +4°C° 0.2 mm 3 mps 735 mmHg 94%
    03:00 +4°C° 0.2 mm 3 mps 735 mmHg 94%
    04:00 +4°C° 0.2 mm 3 mps 735 mmHg 95%
    05:00 +4°C° 0.2 mm 2 mps 736 mmHg 95%
    06:00 +4°C° 0.2 mm 2 mps 736 mmHg 96%
    07:00 +4°C° 0.2 mm 2 mps 736 mmHg 96%
    08:00 +4°C° 0.2 mm 2 mps 736 mmHg 96%
    09:00 +5°C° 0.2 mm 1 mps 736 mmHg 95%
    10:00 +5°C° 0.2 mm 1 mps 736 mmHg 95%
    11:00 +6°C° 0.1 mm 1 mps 737 mmHg 94%
    12:00 +6°C° 0.1 mm 1 mps 737 mmHg 93%
    13:00 +6°C° 0.1 mm 1 mps 737 mmHg 91%
    14:00 +6°C° 0 mm 1 mps 737 mmHg 93%
    15:00 +6°C° 0 mm 1 mps 737 mmHg 94%
    16:00 +6°C° 0 mm 1 mps 737 mmHg 96%
    17:00 +6°C° 0.1 mm 1 mps 737 mmHg 96%
    18:00 +5°C° 0.1 mm 2 mps 737 mmHg 96%
    19:00 +5°C° 0.1 mm 2 mps 737 mmHg 96%
    20:00 +5°C° 0 mm 2 mps 737 mmHg 96%
    21:00 +5°C° 0 mm 2 mps 737 mmHg 96%
    22:00 +5°C° 0 mm 2 mps 737 mmHg 96%
    23:00 +5°C° 0.1 mm 2 mps 737 mmHg 96%

    25 October, Thursday

    Time Temperature Precipitation Wind Pressure Humidity
    00:00 +5°C° 0.1 mm 2 mps 736 mmHg 97%
    01:00 +5°C° 0.1 mm 2 mps 736 mmHg 97%
    02:00 +5°C° 0.1 mm 2 mps 736 mmHg 96%
    03:00 +4°C° 0.1 mm 3 mps 736 mmHg 96%
    04:00 +4°C° 0.1 mm 3 mps 737 mmHg 95%
    05:00 +4°C° 0 mm 3 mps 737 mmHg 95%
    06:00 +3°C° 0 mm 3 mps 737 mmHg 94%
    07:00 +3°C° 0 mm 3 mps 737 mmHg 94%
    08:00 +3°C° 0 mm 3 mps 738 mmHg 93%
    09:00 +4°C° 0 mm 3 mps 738 mmHg 91%
    10:00 +4°C° 0 mm 3 mps 738 mmHg 90%
    11:00 +5°C° 0 mm 3 mps 738 mmHg 88%
    12:00 +5°C° 0 mm 3 mps 738 mmHg 86%
    13:00 +7°C° 0 mm 3 mps 738 mmHg 84%
    14:00 +7°C° 0.6 mm 3 mps 738 mmHg 86%
    15:00 +7°C° 0.6 mm 3 mps 738 mmHg 87%
    16:00 +6°C° 0.6 mm 4 mps 738 mmHg 89%
    17:00 +6°C° 0.9 mm 4 mps 738 mmHg 90%
    18:00 +6°C° 0.9 mm 4 mps 737 mmHg 91%
    19:00 +6°C° 0.9 mm 4 mps 737 mmHg 92%
    20:00 +6°C° 1.1 mm 4 mps 736 mmHg 92%
    21:00 +7°C° 1.1 mm 4 mps 736 mmHg 91%
    22:00 +7°C° 1.1 mm 4 mps 736 mmHg 91%
    23:00 +7°C° 0.5 mm 4 mps 735 mmHg 90%

    26 October, Friday

    Time Temperature Precipitation Wind Pressure Humidity
    00:00 +7°C° 0.5 mm 4 mps 735 mmHg 88%
    01:00 +8°C° 0.5 mm 4 mps 734 mmHg 87%
    02:00 +8°C° 0.2 mm 4 mps 734 mmHg 85%
    03:00 +8°C° 0.2 mm 4 mps 734 mmHg 82%
    04:00 +8°C° 0.2 mm 4 mps 733 mmHg 80%
    05:00 +8°C° 0.1 mm 4 mps 733 mmHg 79%
    06:00 +8°C° 0.1 mm 4 mps 733 mmHg 79%
    07:00 +8°C° 0.1 mm 4 mps 732 mmHg 78%
    08:00 +8°C° 0.6 mm 4 mps 732 mmHg 78%
    09:00 +8°C° 0.6 mm 4 mps 731 mmHg 78%
    10:00 +8°C° 0.6 mm 4 mps 731 mmHg 78%
    11:00 +8°C° 0.3 mm 5 mps 731 mmHg 76%
    12:00 +8°C° 0.3 mm 5 mps 730 mmHg 75%
    13:00 +9°C° 0.3 mm 5 mps 730 mmHg 74%
    14:00 +8°C° 0.5 mm 5 mps 730 mmHg 77%
    15:00 +8°C° 0.5 mm 5 mps 730 mmHg 81%
    16:00 +8°C° 0.5 mm 4 mps 729 mmHg 85%
    17:00 +7°C° 0.8 mm 4 mps 729 mmHg 87%
    18:00 +7°C° 0.8 mm 4 mps 730 mmHg 89%
    19:00 +7°C° 0.8 mm 3 mps 730 mmHg 91%
    20:00 +7°C° 0.1 mm 3 mps 730 mmHg 91%
    21:00 +5°C° 0.1 mm 3 mps 730 mmHg 91%
    22:00 +4°C° 0.1 mm 3 mps 730 mmHg 91%
    23:00 +5°C° 0 mm 2 mps 730 mmHg 91%

    27 October, Saturday

    Time Temperature Precipitation Wind Pressure Humidity
    00:00 +5°C° 0 mm 2 mps 731 mmHg 91%
    01:00 +4°C° 0 mm 2 mps 731 mmHg 91%
    02:00 +3°C° 0 mm 3 mps 731 mmHg 91%
    03:00 +2°C° 0 mm 3 mps 731 mmHg 92%
    04:00 +2°C° 0 mm 3 mps 731 mmHg 92%
    05:00 +2°C° 0 mm 3 mps 731 mmHg 91%
    06:00 +2°C° 0 mm 3 mps 731 mmHg 90%
    07:00 +2°C° 0 mm 3 mps 731 mmHg 89%
    08:00 +2°C° 0 mm 3 mps 731 mmHg 88%
    09:00 +1°C° 0 mm 4 mps 731 mmHg 86%
    10:00 +1°C° 0 mm 4 mps 731 mmHg 85%
    11:00 +3°C° 0.2 mm 4 mps 731 mmHg 83%
    12:00 +3°C° 0.2 mm 4 mps 731 mmHg 81%
    13:00 +3°C° 0.2 mm 4 mps 732 mmHg 80%
    14:00 +1°C° 0.1 mm 4 mps 732 mmHg 78%
    15:00 +2°C° 0.1 mm 3 mps 732 mmHg 77%
    16:00 +1°C° 0.1 mm 3 mps 732 mmHg 76%
    17:00 +1°C° 0.1 mm 3 mps 733 mmHg 78%
    18:00 +1°C° 0.1 mm 3 mps 733 mmHg 79%
    19:00 +1°C° 0.1 mm 3 mps 733 mmHg 81%
    20:00 0°C° 0.2 mm 4 mps 734 mmHg 82%
    21:00 0°C° 0.2 mm 4 mps 734 mmHg 82%
    22:00 0°C° 0.2 mm 4 mps 734 mmHg 83%
    23:00 0°C° 0.2 mm 4 mps 735 mmHg 82%

    28 October, Sunday

    Time Temperature Precipitation Wind Pressure Humidity
    00:00 0°C° 0.2 mm 4 mps 735 mmHg 82%
    01:00 0°C° 0.2 mm 5 mps 736 mmHg 81%
    02:00 -1°C° 0.1 mm 4 mps 736 mmHg 81%
    03:00 -1°C° 0.1 mm 4 mps 737 mmHg 82%
    04:00 -1°C° 0.1 mm 4 mps 737 mmHg 82%
    05:00 -1°C° 0.1 mm 4 mps 738 mmHg 81%
    06:00 -2°C° 0.1 mm 4 mps 738 mmHg 80%
    07:00 -2°C° 0.1 mm 4 mps 738 mmHg 79%
    08:00 -2°C° 0.1 mm 5 mps 739 mmHg 78%
    09:00 -2°C° 0.1 mm 5 mps 739 mmHg 77%
    10:00 -1°C° 0.1 mm 5 mps 739 mmHg 75%
    11:00 -1°C° 0.1 mm 5 mps 740 mmHg 74%
    12:00 -1°C° 0.1 mm 5 mps 740 mmHg 73%
    13:00 -1°C° 0.1 mm 5 mps 740 mmHg 72%
    14:00 -1°C° 0 mm 5 mps 740 mmHg 74%
    15:00 -1°C° 0 mm 4 mps 740 mmHg 76%
    16:00 -1°C° 0 mm 4 mps 740 mmHg 77%
    17:00 0°C° 0 mm 3 mps 740 mmHg 80%
    18:00 0°C° 0 mm 3 mps 740 mmHg 83%
    19:00 0°C° 0 mm 3 mps 740 mmHg 86%
    20:00 -1°C° 0 mm 3 mps 740 mmHg 87%
    21:00 -1°C° 0 mm 2 mps 740 mmHg 88%
    22:00 -2°C° 0 mm 2 mps 741 mmHg 89%
    23:00 -2°C° 0 mm 3 mps 741 mmHg 90%
    Show more